[[{"header":{"parameterUnit":"m.s-1","parameterCategory":1,"la1":30.2991,"la2":30.254,"lo1":-89.0895,"lo2":-89.0444,"dy":0.0017,"dx":0.0017,"nx":28,"ny":28,"refTime":"2025-07-23T21:00:00:Z","depth":0,"parameterNumber":2,"parameterNumberName":"U-component_of_WINDS"},"data":[0,0,0,0,0,0,0,0,0,0,0,0,0,0,0,0,0,0,0,0,0,0,0,0,0,0,0,0,0,0,0,0,0,0,0,0,0,0,0,0,0,0,0,0,0,0,0,0,0,0,0,0,0,0,0,0,0,0,-2.0815,-2.0815,0,-2.0774,-2.0773,-2.0773,-2.0735,-2.0735,-2.0734,-2.0734,-2.069,-2.0689,-2.0689,0,0,0,0,0,0,0,0,0,0,0,0,0,-2.086,-2.0859,-2.0815,-2.0815,-2.0814,-2.0774,-2.0773,-2.0773,-2.0735,-2.0735,-2.0734,-2.0734,-2.069,-2.0689,-2.0689,0,0,0,0,0,0,0,0,0,0,0,0,0,-2.0832,-2.0859,-2.0815,-2.0791,-2.0788,-2.0774,-2.0773,-2.0773,-2.0735,-2.0735,-2.0734,-2.0733,-2.0691,-2.069,-2.0688,-2.0695,0,0,-2.0685,-2.0685,0,0,0,0,0,0,0,0,-2.0833,-2.083,-2.0795,-2.0792,-2.0789,-2.0759,-2.0773,-2.0747,-2.0735,-2.0755,-2.0734,-2.0733,-2.0713,-2.071,-2.0704,-2.0693,-2.0691,-2.0685,-2.0684,-2.0684,-2.0683,0,0,0,0,0,0,0,-2.0835,-2.0832,-2.0799,-2.0794,-2.0791,-2.0781,-2.0776,-2.0768,-2.0739,-2.0754,-2.0751,-2.0746,-2.0712,-2.0705,-2.0703,-2.069,-2.0685,-2.0684,-2.0683,-2.0683,-2.068,-2.068,0,0,0,0,0,0,-2.0841,-2.0834,-2.08,-2.0798,-2.081,-2.0781,-2.0775,-2.0769,-2.0739,-2.0733,-2.0747,-2.0745,-2.0707,-2.0704,-2.0701,-2.0705,-2.0684,-2.0683,-2.0682,-2.0679,-2.068,-2.068,0,0,0,0,0,0,-2.0842,-2.0839,-2.0802,-2.0815,-2.0809,-2.0781,-2.0774,-2.0769,-2.0762,-2.0734,-2.0728,-2.0746,-2.0707,-2.0703,-2.0696,-2.0703,-2.0682,-2.0681,-2.0678,-2.0679,-2.068,-2.0714,0,0,0,0,0,0,-2.0844,-2.0839,-2.0842,-2.0815,-2.0809,-2.0799,-2.0775,-2.0769,-2.0761,-2.0757,-2.0731,-2.0726,-2.0706,-2.0698,-2.0695,-2.0701,-2.068,-2.0678,-2.0679,-2.068,-2.0712,-2.0716,-2.0719,0,0,0,0,0,-2.0846,-2.0854,-2.0843,-2.0839,-2.0812,-2.0799,-2.0795,-2.0773,-2.0761,-2.0763,-2.0745,-2.0727,-2.0703,-2.0698,-2.0694,-2.07,-2.0677,-2.0678,-2.068,-2.071,-2.0715,-2.0719,0,0,0,0,0,0,-2.0882,-2.085,-2.0837,-2.0837,-2.0821,-2.0793,-2.0795,-2.0778,-2.0765,-2.0763,-2.0734,-2.0729,-2.0725,-2.0712,-2.0707,-2.0703,-2.0687,-2.0688,-2.0712,-2.0716,-2.0719,-2.0722,-2.0679,0,0,0,0,0,-2.089,-2.0883,-2.0855,-2.0857,-2.085,-2.0824,-2.0818,-2.0801,-2.0784,-2.0777,-2.0757,-2.0741,-2.0729,-2.0722,-2.071,-2.071,-2.0702,-2.0712,-2.0715,-2.0718,-2.0719,-2.0715,-2.0719,-2.0685,-2.0685,-2.0685,0,0,-2.0907,-2.0888,-2.0886,-2.0864,-2.085,-2.0842,-2.0819,-2.0812,-2.0806,-2.0775,-2.0768,-2.0753,-2.0732,-2.0728,-2.0726,-2.0717,-2.0726,-2.072,-2.0723,-2.0721,-2.0717,-2.072,-2.0723,-2.0686,-2.0686,-2.0685,0,0,-2.0933,-2.0919,-2.0918,-2.0904,-2.0883,-2.0865,-2.0865,-2.0839,-2.0828,-2.082,-2.0797,-2.0788,-2.077,-2.0755,-2.0745,-2.0763,-2.0746,-2.076,-2.0778,-2.0775,-2.0778,-2.078,-2.0785,-2.0787,-2.0761,-2.0761,-2.0761,0,-2.0956,-2.0944,-2.092,-2.0914,-2.0905,-2.0877,-2.0875,-2.0863,-2.0839,-2.0832,-2.0823,-2.0797,-2.0781,-2.0773,-2.0777,-2.0771,-2.0768,-2.0763,-2.078,-2.0782,-2.0783,-2.0787,-2.079,-2.0763,-2.0763,-2.0763,-2.0762,0,-2.0973,-2.0965,-2.0967,-2.0944,-2.0934,-2.0931,-2.0905,-2.0898,-2.0883,-2.0865,-2.0856,-2.0836,-2.0818,-2.0815,-2.08,-2.0804,-2.0799,-2.0785,-2.0769,-2.0789,-2.0792,-2.0794,-2.0765,-2.0765,-2.0764,-2.0764,0,0,-2.102,-2.0984,-2.0985,-2.0973,-2.0947,-2.094,-2.0934,-2.0917,-2.0911,-2.0895,-2.0888,-2.0872,-2.0858,-2.0847,-2.083,-2.0827,-2.0841,-2.0814,-2.0813,-2.0818,-2.0841,-2.0851,-2.0853,-2.0829,-2.0829,-2.083,-2.0843,0,-2.1041,-2.103,-2.1007,-2.1003,-2.0994,-2.0967,-2.0962,-2.0944,-2.0928,-2.0917,-2.0899,-2.0887,-2.0871,-2.0864,-2.086,-2.084,-2.0845,-2.0839,-2.0821,-2.0821,-2.0826,-2.0856,-2.0866,-2.0879,-2.0844,-2.0844,-2.0844,0,-2.1063,-2.1048,-2.1043,-2.1016,-2.1012,-2.1007,-2.0989,-2.0979,-2.0959,-2.0946,-2.0933,-2.0914,-2.0905,-2.089,-2.0876,-2.0872,-2.0864,-2.0852,-2.0852,-2.0849,-2.0833,-2.0852,-2.0883,-2.0885,-2.0846,-2.0846,-2.0846,0,-2.1097,-2.1076,-2.1069,-2.106,-2.1029,-2.1026,-2.1013,-2.0992,-2.0982,-2.0965,-2.0959,-2.0941,-2.0931,-2.0918,-2.0893,-2.0885,-2.0881,-2.0865,-2.0869,-2.087,-2.0869,-2.0869,-2.0899,-2.0866,-2.0866,-2.0866,-2.0866,0,-2.1121,-2.1118,-2.1083,-2.1079,-2.1075,-2.1049,-2.1045,-2.1029,-2.101,-2.1001,-2.0977,-2.0969,-2.0937,-2.0925,-2.0906,-2.0896,-2.0892,-2.0881,-2.0876,-2.0883,-2.0884,-2.0876,-2.0874,-2.0866,-2.0866,-2.0866,-2.0866,0,-2.1157,-2.1134,-2.1125,-2.1096,-2.1088,-2.1086,-2.1061,-2.1055,-2.1037,-2.1026,-2.1022,-2.0993,-2.0977,-2.0951,-2.0928,-2.0915,-2.0908,-2.09,-2.0915,-2.0912,-2.0917,-2.0917,-2.0941,-2.0942,-2.091,-2.0911,-2.0911,0,-2.1174,-2.1171,-2.1141,-2.1134,-2.1122,-2.111,-2.11,-2.1074,-2.1064,-2.1039,-2.1036,-2.1018,-2.1003,-2.0979,-2.0955,-2.0936,-2.0927,-2.0937,-2.0924,-2.093,-2.0925,-2.0925,-2.0924,-2.094,-2.094,-2.0941,-2.0941,0,-2.1205,-2.1193,-2.118,-2.1163,-2.1151,-2.1136,-2.112,-2.1115,-2.1084,-2.1074,-2.1058,-2.1046,-2.1022,-2.1004,-2.0982,-2.0967,-2.0948,-2.0945,-2.0945,-2.0951,-2.096,-2.0953,-2.0922,-2.0945,-2.0944,-2.0944,-2.0944,-2.0944,-2.123,-2.1226,-2.1204,-2.119,-2.1175,-2.116,-2.1152,-2.1133,-2.1119,-2.1098,-2.1083,-2.1067,-2.1044,-2.1013,-2.0998,-2.0985,-2.0977,-2.0977,-2.0976,-2.0977,-2.0978,-2.0963,-2.0981,-2.0981,-2.098,-2.098,-2.098,0,-2.1259,-2.1243,-2.1231,-2.1208,-2.1196,-2.1181,-2.1161,-2.1152,-2.1139,-2.112,-2.1105,-2.1085,-2.1067,-2.1042,-2.1021,-2.1015,-2.1006,-2.1011,-2.101,-2.1006,-2.0988,-2.0989,-2.1018,-2.1018,-2.1018,-2.1018,-2.1018,-2.1018,-2.1272,-2.1263,-2.1249,-2.1232,-2.1216,-2.1201,-2.1191,-2.1176,-2.116,-2.114,-2.1125,-2.1109,-2.1086,-2.1064,-2.1046,-2.1039,-2.1032,-2.1039,-2.1029,-2.1012,-2.1008,-2.1005,-2.1006,-2.1038,-2.1038,-2.1049,-2.1049,-2.1049]},{"header":{"parameterUnit":"m.s-1","parameterCategory":1,"la1":30.2991,"la2":30.254,"lo1":-89.0895,"lo2":-89.0444,"dy":0.0017,"dx":0.0017,"nx":28,"ny":28,"refTime":"2025-07-23T21:00:00:Z","depth":0,"parameterNumber":3,"parameterNumberName":"V-component_of_WINDS"},"data":[0,0,0,0,0,0,0,0,0,0,0,0,0,0,0,0,0,0,0,0,0,0,0,0,0,0,0,0,0,0,0,0,0,0,0,0,0,0,0,0,0,0,0,0,0,0,0,0,0,0,0,0,0,0,0,0,0,0,5.6087,5.6089,0,5.6291,5.6293,5.6296,5.6292,5.6289,5.6287,5.6284,5.6487,5.6494,5.6502,0,0,0,0,0,0,0,0,0,0,0,0,0,5.5684,5.5691,5.6086,5.6089,5.6091,5.6291,5.6294,5.6296,5.6293,5.6289,5.6286,5.6283,5.6484,5.6493,5.6503,0,0,0,0,0,0,0,0,0,0,0,0,0,5.587,5.5694,5.6086,5.6114,5.6118,5.629,5.6294,5.6297,5.6293,5.6289,5.6285,5.6281,5.6481,5.6492,5.6504,5.666,0,0,5.6541,5.6546,0,0,0,0,0,0,0,0,5.586,5.5885,5.6107,5.6112,5.6118,5.6262,5.6226,5.6418,5.6294,5.6227,5.6284,5.6279,5.6415,5.6432,5.6479,5.6669,5.6678,5.6542,5.6549,5.6554,5.6557,0,0,0,0,0,0,0,5.5847,5.5876,5.6167,5.611,5.6117,5.6113,5.6135,5.6262,5.6341,5.6232,5.6232,5.6257,5.6417,5.6467,5.6484,5.6681,5.6541,5.6552,5.6559,5.6564,5.7005,5.7009,0,0,0,0,0,0,5.5829,5.5866,5.6161,5.6173,5.5976,5.6124,5.6148,5.622,5.634,5.6354,5.626,5.6256,5.6449,5.647,5.6491,5.6679,5.6554,5.6565,5.6572,5.7,5.7006,5.7011,0,0,0,0,0,0,5.5821,5.5856,5.6152,5.602,5.6057,5.6135,5.6215,5.6226,5.6277,5.6361,5.6374,5.6298,5.6447,5.6474,5.6617,5.6685,5.657,5.6581,5.6995,5.7002,5.7008,5.7056,0,0,0,0,0,0,5.5809,5.5853,5.5915,5.6021,5.6064,5.6278,5.6219,5.6233,5.6298,5.6295,5.64,5.6414,5.6446,5.66,5.6629,5.67,5.659,5.6989,5.6998,5.7006,5.7049,5.7064,5.7077,0,0,0,0,0,5.5795,5.5919,5.5918,5.5953,5.6144,5.6282,5.6307,5.6343,5.6304,5.6365,5.6419,5.641,5.6674,5.6614,5.6648,5.6723,5.6985,5.6996,5.7006,5.7043,5.7061,5.7077,0,0,0,0,0,0,5.5817,5.5934,5.5934,5.6097,5.618,5.6282,5.636,5.6362,5.6456,5.6448,5.6487,5.6511,5.6654,5.6703,5.6635,5.6878,5.6824,5.6841,5.6841,5.6859,5.6873,5.6857,5.66,0,0,0,0,0,5.5841,5.5946,5.6042,5.6176,5.6218,5.6282,5.6344,5.6364,5.6451,5.6486,5.655,5.6632,5.6733,5.6799,5.6897,5.7056,5.7077,5.7124,5.7138,5.7149,5.7163,5.7248,5.7269,5.7045,5.7045,5.7045,0,0,5.5891,5.5968,5.6032,5.6182,5.6249,5.6354,5.6312,5.6425,5.6502,5.6502,5.6642,5.6691,5.6786,5.6937,5.7007,5.6982,5.723,5.7162,5.717,5.7179,5.7261,5.7282,5.7301,5.7052,5.7051,5.7049,0,0,5.6036,5.6107,5.6225,5.6293,5.6395,5.6437,5.6465,5.6567,5.66,5.6741,5.6742,5.6833,5.7008,5.7074,5.713,5.7299,5.7293,5.7329,5.7401,5.7484,5.7501,5.7517,5.7575,5.7595,5.7343,5.7343,5.7343,0,5.6086,5.6247,5.6285,5.64,5.6464,5.647,5.6588,5.6652,5.678,5.6823,5.6794,5.7011,5.7075,5.7241,5.7282,5.7328,5.7359,5.7317,5.7496,5.7512,5.7528,5.7583,5.7605,5.7347,5.7346,5.7346,5.7346,0,5.63,5.6412,5.6495,5.662,5.6694,5.6809,5.6862,5.6932,5.6946,5.6989,5.7131,5.7208,5.732,5.7361,5.7376,5.7529,5.751,5.7488,5.7434,5.7552,5.7604,5.7626,5.7352,5.7351,5.735,5.7349,0,0,5.6466,5.661,5.664,5.6695,5.6808,5.6893,5.7007,5.7119,5.7176,5.7264,5.7359,5.7505,5.7485,5.7549,5.7571,5.7643,5.7768,5.7613,5.7615,5.7637,5.7938,5.7953,5.7977,5.7766,5.777,5.7774,5.793,0,5.6621,5.6827,5.6864,5.7042,5.7143,5.7149,5.7248,5.7326,5.7369,5.7459,5.7506,5.7608,5.7576,5.7614,5.7687,5.7738,5.7829,5.7727,5.7851,5.7855,5.7826,5.8005,5.8021,5.8165,5.7951,5.7954,5.7957,0,5.6831,5.6925,5.7113,5.721,5.7253,5.7342,5.7446,5.7533,5.762,5.7646,5.7717,5.773,5.7845,5.7787,5.7945,5.7875,5.7928,5.796,5.7967,5.7978,5.7912,5.8019,5.8212,5.8233,5.799,5.7987,5.7985,0,5.693,5.7103,5.7238,5.7285,5.7402,5.7464,5.7514,5.7598,5.7662,5.7752,5.7793,5.7894,5.795,5.8027,5.8065,5.802,5.8219,5.8165,5.8242,5.8241,5.8283,5.8279,5.8485,5.8319,5.8319,5.8319,5.8318,0,5.7099,5.7213,5.7284,5.7366,5.7493,5.7533,5.7657,5.7707,5.778,5.787,5.7881,5.7965,5.8012,5.8101,5.8132,5.8257,5.8282,5.8304,5.831,5.8302,5.8299,5.8336,5.8327,5.8324,5.8323,5.8322,5.8321,0,5.7231,5.7283,5.743,5.7528,5.7555,5.7644,5.7727,5.7805,5.7848,5.7961,5.799,5.8056,5.8162,5.8208,5.8339,5.8359,5.8501,5.8501,5.8472,5.8474,5.8547,5.8539,5.8782,5.8815,5.8629,5.8631,5.8633,0,5.7335,5.7423,5.753,5.7592,5.7645,5.7745,5.781,5.7852,5.7919,5.8023,5.8089,5.8195,5.8283,5.8451,5.8509,5.8608,5.8609,5.8688,5.8624,5.8613,5.8608,5.8602,5.861,5.8699,5.8701,5.8702,5.8703,0,5.7513,5.7534,5.7629,5.7732,5.781,5.7893,5.7974,5.8023,5.8077,5.8151,5.8261,5.8328,5.8461,5.8566,5.8668,5.8718,5.8719,5.8723,5.8746,5.8738,5.8717,5.8727,5.8502,5.8717,5.8716,5.8715,5.8714,5.8713,5.7633,5.7711,5.7798,5.7902,5.7968,5.8043,5.8121,5.8173,5.8266,5.8378,5.8396,5.8512,5.8594,5.8732,5.8785,5.8874,5.8855,5.8888,5.8896,5.8903,5.8907,5.8704,5.8893,5.8893,5.8892,5.8892,5.8892,0,5.781,5.7866,5.7962,5.8075,5.8156,5.8152,5.8241,5.8308,5.8411,5.8488,5.8574,5.8698,5.8799,5.8864,5.8966,5.9024,5.9027,5.9049,5.9045,5.9056,5.892,5.8889,5.9045,5.9045,5.9045,5.9045,5.9045,5.9045,5.7912,5.8042,5.8073,5.8235,5.8289,5.8405,5.8455,5.8523,5.8585,5.8723,5.8808,5.885,5.8922,5.9029,5.912,5.9136,5.9172,5.9195,5.921,5.9082,5.9066,5.905,5.9022,5.9203,5.9203,5.9339,5.934,5.9341]}]]